Regional Weather Roundup
Issued by NWS

Home | Current Version | Previous Version | Graphics & Text | Print | Product List | Glossary On
Versions: 1 2 3 4 5 6 7 8 9 10 11 12 13 14 15 16 17 18 19 20 21 22 23 24 25 26 27 28 29 30 31 32 33 34 35 36 37 38 39 40 41 42 43 44 45 46 47 48 49 50
000
ASUS45 KBOU 291807
RWRCO

WEATHER ROUNDUP FOR COLORADO
NATIONAL WEATHER SERVICE DENVER/BOULDER CO
1200 PM MDT FRI APR 29 2016

NOTE: "FAIR" INDICATES FEW OR NO CLOUDS BELOW 12000 FEET WITH NO
SIGNIFICANT WEATHER AND/OR OBSTRUCTIONS TO VISIBILITY.

COZ001>005-013-030-031-291900-
...NORTHWEST COLORADO...

CITY           SKY/WX    TMP DP  RH WIND       PRES   REMARKS
CRAIG          LGT RAIN  44  37  76 SW5       29.85F
HAYDEN         CLOUDY    41  30  65 W7        29.85S
MEEKER         CLOUDY    46  35  65 W8        29.84S
MOUNT WERNER   NOT AVBL
STEAMBOAT SPGS CLOUDY    42  34  74 S6        29.84S
WALDEN         CLOUDY    32  30  93 CALM      29.90R VSB 1
$$

COZ006>008-011-291900-
...WEST CENTRAL VALLEYS...

CITY           SKY/WX    TMP DP  RH WIND       PRES   REMARKS
GRAND JUNCTION FAIR      52  37  56 W9        29.83F
MONTROSE       LGT RAIN  45  34  65 NW6       29.86S
EAGLE          CLOUDY    39  37  93 NE6       29.87R
RIFLE          CLOUDY    51  36  56 W6        29.82S
DELTA          NOT AVBL
NUCLA          NOT AVBL
$$

COZ017>023-064>068-291900-
...SOUTHWEST COLORADO...

CITY           SKY/WX    TMP DP  RH WIND       PRES   REMARKS
DURANGO        LGT RAIN  40  33  76 SW21G26   29.84F
CORTEZ         FAIR      50  32  50 VRB3      29.86F
PAGOSA SPRINGS LGT SNOW  35  35  99 S7        29.87S WCI  29
TELLURIDE      CLOUDY    37  24  59 W3        29.89S
WOLF CREEK PAS SNOW      21  21 100 SW12      29.92S VSB 1/4 WCI   9
$$

COZ009-010-012-014-032>034-037-058>063-291900-
...CENTRAL COLORADO...

CITY           SKY/WX    TMP DP  RH WIND       PRES   REMARKS
ASPEN          HVY SNOW  33  31  92 N5        29.85S VSB 1/4 WCI  29
BUENA VISTA    LGT SNOW  31  29  90 E7        29.89F VSB 3/4 WCI  24
COPPER MTN     NOT AVBL
BERTHOUD PASS  HVY SNOW  18   7  62 E23       29.91R VSB<1/4 WCI   0
COTTONWOOD PAS LGT SNOW  32  30  93 CALM      29.90S VSB 3/4
GUNNISON       CLOUDY    32  30  93 SE7       29.89S VSB 1   WCI  26
KREMMLING      CLOUDY    36  30  80 NW3       29.87F
LEADVILLE      LGT SNOW  25  24  96 S10       29.87S VSB 3/4 WCI  15
MONARCH PASS   CLOUDY    19  18  93 NE18      29.97F WCI   4
SALIDA         CLOUDY    33  31  94 CALM      29.97F
SUNLIGHT       SNOW      30  27  86 CALM      29.93S VSB 1/2
WILKERSON PASS LGT SNOW N/A N/A N/A SE5       29.93S VSB 3/4
$$

COZ069>075-291900-
...SAN LUIS VALLEY/SANGRE DE CRISTO MOUNTAINS...

CITY           SKY/WX    TMP DP  RH WIND       PRES   REMARKS
ALAMOSA        LGT SNOW  34  32  92 SE7       29.84F FOG     WCI  28
LA VETA PASS   TSTM      28  23  80 MISG      29.87F
SAGUACHE       LGT SNOW  34  32  93 S5        29.86S VSB 1   WCI  30
$$

COZ035-036-038>040-291900-
...NORTHERN COLORADO FRONT RANGE...

CITY           SKY/WX    TMP DP  RH WIND       PRES   REMARKS
DENVER INTL AP SNOW      33  30  88 E7        29.94S VSB 1/4 WCI  27
DMNS CITY PARK   N/A     34  33  99 NE3       29.94S
AURORA         LGT SNOW  33  33 100 NE7       29.94S VSB 3/4 WCI  27
FRONT RANGE AP SNOW      32  32 100 NE5       29.95R VSB 1/2 WCI  27
ERIE MUNI ARPT LGT SNOW  33  33  99 CALM      29.95R VSB 1
BOULDER MUN AP LGT SNOW  34  34 100 NE3       29.94S
CENTENNIAL     LGT SNOW  33  32  96 CALM      29.92F VSB 3/4
BROOMFIELD     SNOW      34  34 100 MISG      29.95R VSB 1/2
FORT COLLINS   CLOUDY    37  34  87 E10       29.96S
LONGMONT       LGT SNOW  38  36  91 E5        29.97R
$$

COZ041-046-047-076>085-087-088-291900-
...PIKES PEAK/PALMER DIVIDE AND SOUTHERN FOOTHILLS...

CITY           SKY/WX    TMP DP  RH WIND       PRES   REMARKS
COLO. SPRINGS  SNOW      34  32  92 NW7       29.90F VSB 1/4 WCI  28
A. F. ACADEMY  LGT SNOW  32  32 100 NW6       29.90S FOG     WCI  26
SCHRIEVER AFB  NOT AVBL
ELLICOTT       NOT AVBL
FALCON         SNOW      34  32  91 N10       29.90F VSB 1/4 WCI  26
FORT CARSON    LGT SNOW  32  32 100 NW6       29.89F VSB 3/4 WCI  26
LIMON          LGT SNOW  33  32  96 NE13      29.92F FOG     WCI  24
MONUMENT HILL  SNOW      32  30  93 N5        29.92F VSB 1/2 WCI  27
TRINIDAD       LGT SNOW  34  31  88 NW9       29.89S VSB 1   WCI  27
$$

COZ042>045-048>051-090-091-291900-
...NORTHEAST COLORADO...

CITY           SKY/WX    TMP DP  RH WIND       PRES   REMARKS
GREELEY ARPT   CLOUDY    36  34  93 E5        29.98R
AKRON          LGT RAIN  36  34  92 NE12      29.96R FOG
BURLINGTON     RAIN      37  34  89 NE20      29.92S FOG
WRAY           NOT AVBL
STERLING       LGT RAIN  37  37 100 NE10      29.97S
HOLYOKE        NOT AVBL
FORT MORGAN    MIX PCPN  36  34  94 E12       29.98S
$$

COZ086-089-092>099-291900-
...SOUTHEAST COLORADO...

CITY           SKY/WX    TMP DP  RH WIND       PRES   REMARKS
PUEBLO         SNOW      34  31  88 W3        29.93R VSB 1/2
LA JUNTA       LGT RAIN  37  35  92 N10       29.93R FOG
LAMAR          RAIN      41  39  93 E15       29.85F FOG
SPRINGFIELD      N/A     40  39  97 NE7       29.85S
$$



USA.gov is the U.S. government's official web portal to all federal, state and local government web resources and services.